Home > Weather > Sheboygan > Past weeks

Flag for U.S.A. Weather for the Past 2 Weeks in Sheboygan, Wisconsin, U.S.A.

Now
2 °F

Clear.


Feels Like: -12 °F
Forecast: 7 / 17 °F
Wind: 8 mph from Northwest

Location: Sheboygan County Memorial Airport

Current Time: Feb 11, 2016 at 7:26:41 AM

Latest Report: Feb 11, 2016 at 6:53 AM


Visibility: 10 mi

Pressure: 30.31 "Hg

Humidity: 69%

Dew point: -6 °F

Location of SheboyganLocation

Historic Weather in Sheboygan — Graph

°F

Sheboygan Temperature Yesterday

Maximum temperature yesterday: 12 °F (at 11:53 AM)
Minimum temperature yesterday: 3 °F (at 9:53 PM)
Average temperature yesterday: 8 °F

High & Low Weather Summary for the Past Weeks

 TemperatureHumidityPressure
High41 °F (Feb 7, 1:53 PM)100% (Feb 2, 5:53 PM)30.38 "Hg (Feb 2, 5:53 PM)
Low2 °F (Feb 11, 3:53 AM)48% (Feb 10, 1:53 PM)29.45 "Hg (Feb 3, 3:53 AM)
Average27 °F75%29.89 "Hg
* Reported Jan 27 5:53 AM — Feb 11 5:53 AM, Sheboygan, Weather by CustomWeather, © 2016

Note: Actual official high and low records may vary slightly from our data, if they occured in-between our weather recording intervals... More about our weather records

Advertising

Sheboygan Weather History for the Previous 24 Hours

 ConditionsComfort  
Time TempWeatherWind HumidityBarometerVisibility
5:53 AM
Thu, Feb 11
2 °FClear.10 mph69%30.29 "Hg10 mi
4:53 AM2 °FClear.9 mph69%30.27 "Hg10 mi
3:53 AM2 °FClear.10 mph69%30.25 "Hg10 mi
2:53 AM3 °FClear.9 mph66%30.23 "Hg10 mi
1:53 AM5 °FClear.9 mph60%30.22 "Hg10 mi
12:53 AM5 °FClear.7 mph60%30.22 "Hg10 mi
11:53 PM
Wed, Feb 10
4 °FClear.6 mph63%30.22 "Hg10 mi
10:53 PM4 °FClear.6 mph63%30.21 "Hg10 mi
9:53 PM3 °FClear.3 mph66%30.19 "Hg10 mi
8:53 PM4 °FClear.3 mph63%30.17 "Hg10 mi
7:53 PM5 °FClear.7 mph63%30.15 "Hg10 mi
6:53 PM7 °FClear.6 mph57%30.14 "Hg10 mi
5:53 PM9 °FClear.6 mph52%30.13 "Hg10 mi
4:53 PM11 °FSunny.6 mph48%30.11 "Hg10 mi
3:53 PM12 °FSunny.12 mph48%30.08 "Hg10 mi
2:53 PM12 °FSunny.14 mph48%30.06 "Hg10 mi
1:53 PM12 °FSunny.12 mph48%30.05 "Hg10 mi
12:53 PM12 °FSunny.13 mph51%30.04 "Hg10 mi
11:53 AM12 °FSunny.10 mph51%30.04 "Hg10 mi
10:53 AM11 °FSunny.12 mph56%30.05 "Hg10 mi
9:53 AM10 °FSunny.15 mph55%30.04 "Hg10 mi
8:53 AM9 °FSunny.12 mph55%30.04 "Hg10 mi
7:53 AM7 °FSunny.12 mph57%30.03 "Hg10 mi
Weather by CustomWeather, © 2016

See weather overviewHow to use our weather pages